Location: ??????
(55.7522°N, 37.6156°E)
Time: 17:16:24
(UTC+00:00)

ATLAS 3B R/B - Pass Details

Date: 14 June 2025
Orbit: 935 x 1258 km, 63.8° (Epoch: 12 July)

Event Time Altitude Azimuth Distance (km) Brightness Sun altitude
Rises 19:21:20 0° 288° (WNW) 4,161 6.6 -6.3°
Reaches altitude 10° 19:24:14 10° 294° (WNW) 3,219 6.1 -6.5°
Maximum altitude 19:31:49 49° 9° (N) 1,586 4.1 -7.0°
Drops below altitude 10° 19:39:24 10° 83° (E) 3,222 5.0 -7.5°
Sets 19:42:18 0° 89° (E) 4,165 5.5 -7.7°
